Tracking 29892 objects as of 21-Nov-2024
HD Live streaming from Space Station
objects crossing your sky now

SL-16 DEB

Track SL-16 DEB now!
10-day predictions


NORAD ID: 27760
Int'l Code: 1994-077M
Perigee: 663.3 km
Apogee: 726.3 km
Inclination: 71.0 °
Period: 98.5 minutes
Semi major axis: 7065 km
RCS: 0.0093 m2 (small)
Launch date: November 24, 1994
Source: Commonwealth of Independent States (former USSR) (CIS)
Launch site: TYURATAM MISSILE AND SPACE COMPLEX (TTMTR)

Note: This is SATELLITE DEBRIS
Your satellite tracking list
Your tracking list is empty




NASA's NSSDC Master Catalog

Two Line Element Set (TLE):
1 27760U 94077M   24325.38780722  .00007010  00000-0  13968-2 0  9999
2 27760  70.9952 304.7033 0044552 123.9799  26.1943 14.61703589305979
Source of the keplerian elements: AFSPC